When you browse on this site, cookies collect data to enhance your experience and personalize the content and advertising you see.
Visit our Privacy Policy to learn more. By continuing to use the site, you agree to this use of cookies and data.
  • In Latvia
  • List of Countries
  • For 7 days
  • Water Temperature
  • Weather Map
  • Weather Widgets
  • user-avatar
    Login

    Hourly Weather Batina

    Today, 7 June, Sunday

    Time Temperature Precipitation Wind Pressure Humidity
    00:00 +23°C° 0 mm 2 mps 668 mmHg 29%
    01:00 +23°C° 0 mm 2 mps 668 mmHg 30%
    02:00 +23°C° 0 mm 2 mps 667 mmHg 31%
    03:00 +22°C° 0 mm 3 mps 667 mmHg 32%
    04:00 +24°C° 0 mm 2 mps 667 mmHg 32%
    05:00 +24°C° 0 mm 2 mps 668 mmHg 33%
    06:00 +25°C° 0 mm 2 mps 668 mmHg 33%
    07:00 +26°C° 0.1 mm 2 mps 668 mmHg 33%
    08:00 +27°C° 0.1 mm 3 mps 669 mmHg 33%
    09:00 +27°C° 0.1 mm 3 mps 669 mmHg 33%
    10:00 +28°C° 0 mm 4 mps 669 mmHg 32%
    11:00 +29°C° 0 mm 5 mps 669 mmHg 30%
    12:00 +30°C° 0 mm 5 mps 669 mmHg 29%
    13:00 +30°C° 0 mm 5 mps 669 mmHg 29%
    14:00 +30°C° 0 mm 5 mps 669 mmHg 29%
    15:00 +30°C° 0 mm 5 mps 668 mmHg 30%
    16:00 +28°C° 0 mm 5 mps 668 mmHg 35%
    17:00 +26°C° 0 mm 5 mps 668 mmHg 41%
    18:00 +25°C° 0 mm 5 mps 668 mmHg 47%
    19:00 +23°C° 0 mm 4 mps 668 mmHg 50%
    20:00 +22°C° 0 mm 4 mps 669 mmHg 53%
    21:00 +21°C° 0 mm 3 mps 669 mmHg 57%
    22:00 +20°C° 0 mm 3 mps 669 mmHg 58%
    23:00 +20°C° 0 mm 2 mps 668 mmHg 60%

    Tomorrow, 8 June, Monday

    Time Temperature Precipitation Wind Pressure Humidity
    00:00 +19°C° 0 mm 2 mps 668 mmHg 62%
    01:00 +19°C° 0 mm 2 mps 668 mmHg 63%
    02:00 +18°C° 0 mm 2 mps 667 mmHg 65%
    03:00 +19°C° 0 mm 1 mps 667 mmHg 66%
    04:00 +20°C° 0 mm 1 mps 667 mmHg 61%
    05:00 +20°C° 0 mm 1 mps 668 mmHg 55%
    06:00 +21°C° 0 mm 1 mps 668 mmHg 49%
    07:00 +23°C° 0 mm 1 mps 669 mmHg 43%
    08:00 +24°C° 0 mm 2 mps 669 mmHg 36%
    09:00 +25°C° 0 mm 3 mps 670 mmHg 29%
    10:00 +26°C° 0 mm 4 mps 669 mmHg 28%
    11:00 +27°C° 0 mm 5 mps 669 mmHg 27%
    12:00 +28°C° 0 mm 6 mps 669 mmHg 26%
    13:00 +28°C° 0 mm 6 mps 669 mmHg 27%
    14:00 +28°C° 0 mm 7 mps 669 mmHg 28%
    15:00 +28°C° 0 mm 7 mps 669 mmHg 28%
    16:00 +27°C° 0 mm 6 mps 669 mmHg 31%
    17:00 +26°C° 0 mm 6 mps 669 mmHg 33%
    18:00 +25°C° 0 mm 5 mps 668 mmHg 36%
    19:00 +23°C° 0.3 mm 4 mps 669 mmHg 44%
    20:00 +21°C° 0.3 mm 3 mps 669 mmHg 53%
    21:00 +20°C° 0.3 mm 3 mps 669 mmHg 61%
    22:00 +19°C° 0.1 mm 2 mps 669 mmHg 67%
    23:00 +18°C° 0.1 mm 2 mps 668 mmHg 72%

    Day after tomorrow, 9 June, Tuesday

    Time Temperature Precipitation Wind Pressure Humidity
    00:00 +17°C° 0.1 mm 2 mps 668 mmHg 78%
    01:00 +17°C° 0.2 mm 2 mps 668 mmHg 77%
    02:00 +17°C° 0.2 mm 2 mps 668 mmHg 77%
    03:00 +17°C° 0.2 mm 2 mps 668 mmHg 76%
    04:00 +18°C° 0 mm 1 mps 668 mmHg 73%
    05:00 +19°C° 0 mm 1 mps 669 mmHg 69%
    06:00 +19°C° 0 mm 1 mps 669 mmHg 66%
    07:00 +20°C° 0 mm 1 mps 669 mmHg 60%
    08:00 +21°C° 0 mm 2 mps 670 mmHg 53%
    09:00 +23°C° 0 mm 2 mps 670 mmHg 46%
    10:00 +24°C° 0 mm 3 mps 670 mmHg 41%
    11:00 +25°C° 0 mm 3 mps 671 mmHg 35%
    12:00 +26°C° 0 mm 4 mps 671 mmHg 29%
    13:00 +27°C° 0 mm 4 mps 671 mmHg 26%
    14:00 +27°C° 0 mm 4 mps 671 mmHg 23%
    15:00 +28°C° 0 mm 4 mps 671 mmHg 21%
    16:00 +26°C° 0 mm 4 mps 670 mmHg 27%
    17:00 +25°C° 0 mm 4 mps 670 mmHg 33%
    18:00 +23°C° 0 mm 4 mps 670 mmHg 39%
    19:00 +21°C° 0.2 mm 4 mps 670 mmHg 49%
    20:00 +20°C° 0.2 mm 4 mps 671 mmHg 59%
    21:00 +19°C° 0.2 mm 3 mps 671 mmHg 70%
    22:00 +18°C° 0.1 mm 3 mps 671 mmHg 71%
    23:00 +18°C° 0.1 mm 3 mps 671 mmHg 72%

    10 June, Wednesday

    Time Temperature Precipitation Wind Pressure Humidity
    00:00 +18°C° 0.1 mm 3 mps 671 mmHg 73%
    01:00 +18°C° 0.1 mm 2 mps 670 mmHg 71%
    02:00 +18°C° 0.1 mm 2 mps 670 mmHg 69%
    03:00 +19°C° 0.1 mm 1 mps 670 mmHg 67%
    04:00 +18°C° 0.2 mm 2 mps 670 mmHg 66%
    05:00 +18°C° 0.2 mm 4 mps 671 mmHg 65%
    06:00 +17°C° 0.2 mm 5 mps 671 mmHg 64%
    07:00 +19°C° 0 mm 5 mps 671 mmHg 59%
    08:00 +21°C° 0 mm 5 mps 672 mmHg 53%
    09:00 +22°C° 0 mm 5 mps 672 mmHg 47%
    10:00 +23°C° 0 mm 6 mps 672 mmHg 45%
    11:00 +24°C° 0 mm 6 mps 672 mmHg 42%
    12:00 +26°C° 0 mm 7 mps 672 mmHg 40%
    13:00 +24°C° 0.6 mm 6 mps 672 mmHg 44%
    14:00 +23°C° 0.6 mm 5 mps 671 mmHg 47%
    15:00 +22°C° 0.6 mm 3 mps 671 mmHg 50%
    16:00 +22°C° 0.1 mm 3 mps 671 mmHg 50%
    17:00 +22°C° 0.1 mm 3 mps 671 mmHg 50%
    18:00 +22°C° 0.1 mm 3 mps 671 mmHg 50%
    19:00 +21°C° 0.5 mm 2 mps 671 mmHg 56%
    20:00 +20°C° 0.5 mm 2 mps 671 mmHg 63%
    21:00 +20°C° 0.5 mm 1 mps 671 mmHg 69%
    22:00 +19°C° 0.6 mm 1 mps 671 mmHg 72%
    23:00 +18°C° 0.6 mm 1 mps 670 mmHg 76%

    11 June, Thursday

    Time Temperature Precipitation Wind Pressure Humidity
    00:00 +17°C° 0.6 mm 2 mps 670 mmHg 79%
    01:00 +16°C° 0.1 mm 1 mps 670 mmHg 80%
    02:00 +16°C° 0.1 mm 1 mps 670 mmHg 81%
    03:00 +16°C° 0.1 mm 1 mps 669 mmHg 82%
    04:00 +18°C° 0 mm 1 mps 670 mmHg 79%
    05:00 +18°C° 0 mm 1 mps 670 mmHg 77%
    06:00 +19°C° 0 mm 1 mps 670 mmHg 74%
    07:00 +19°C° 0 mm 2 mps 671 mmHg 67%
    08:00 +20°C° 0 mm 2 mps 671 mmHg 61%
    09:00 +21°C° 0 mm 3 mps 671 mmHg 54%
    10:00 +22°C° 0 mm 3 mps 671 mmHg 47%
    11:00 +24°C° 0 mm 3 mps 671 mmHg 40%
    12:00 +25°C° 0 mm 4 mps 671 mmHg 32%
    13:00 +26°C° 0 mm 4 mps 671 mmHg 29%
    14:00 +26°C° 0 mm 4 mps 671 mmHg 27%
    15:00 +27°C° 0 mm 4 mps 671 mmHg 24%
    16:00 +26°C° 0 mm 4 mps 670 mmHg 24%
    17:00 +26°C° 0 mm 3 mps 670 mmHg 24%
    18:00 +26°C° 0 mm 3 mps 670 mmHg 24%
    19:00 +24°C° 0 mm 2 mps 670 mmHg 29%
    20:00 +23°C° 0 mm 2 mps 670 mmHg 34%
    21:00 +22°C° 0 mm 1 mps 670 mmHg 38%
    22:00 +21°C° 0 mm 1 mps 670 mmHg 41%
    23:00 +20°C° 0 mm 1 mps 669 mmHg 44%

    12 June, Friday

    Time Temperature Precipitation Wind Pressure Humidity
    00:00 +19°C° 0 mm 1 mps 669 mmHg 47%
    01:00 +19°C° 0 mm 1 mps 669 mmHg 46%
    02:00 +19°C° 0 mm 1 mps 668 mmHg 44%
    03:00 +19°C° 0 mm 1 mps 668 mmHg 43%
    04:00 +20°C° 0 mm 1 mps 669 mmHg 39%
    05:00 +21°C° 0 mm 1 mps 669 mmHg 36%
    06:00 +22°C° 0 mm 1 mps 670 mmHg 32%
    07:00 +24°C° 0 mm 2 mps 670 mmHg 30%
    08:00 +25°C° 0 mm 3 mps 671 mmHg 28%
    09:00 +26°C° 0 mm 4 mps 671 mmHg 26%
    10:00 +27°C° 0 mm 4 mps 672 mmHg 26%
    11:00 +28°C° 0 mm 5 mps 672 mmHg 26%
    12:00 +29°C° 0 mm 5 mps 672 mmHg 25%
    13:00 +29°C° 0 mm 6 mps 671 mmHg 26%
    14:00 +30°C° 0 mm 6 mps 671 mmHg 27%
    15:00 +30°C° 0 mm 6 mps 670 mmHg 28%
    16:00 +29°C° 0 mm 5 mps 670 mmHg 31%
    17:00 +28°C° 0 mm 4 mps 670 mmHg 33%
    18:00 +28°C° 0 mm 3 mps 670 mmHg 36%
    19:00 +27°C° 0 mm 2 mps 670 mmHg 38%
    20:00 +26°C° 0 mm 2 mps 670 mmHg 41%
    21:00 +25°C° 0 mm 2 mps 669 mmHg 44%
    22:00 +24°C° 0 mm 2 mps 669 mmHg 45%
    23:00 +24°C° 0 mm 1 mps 669 mmHg 47%
    Show more